Weather History for KIML - December, 2014

Change the Weather History Date:

Friday, December 26, 2014

  Actual Average Record
Temperature  
Mean Temperature 19 °F 27 °F  
Max Temperature 25 °F 40 °F 66 °F (1976)
Min Temperature 13 °F 15 °F -9 °F (2012)
Degree Days  
Heating Degree Days 46 38  
Month to date heating degree days 849 948  
Cooling Degree Days 0 0  
Month to date cooling degree days 0 0  
Year to date cooling degree days 955 963  
Moisture  
Dew Point 17 °F    
Average Humidity 83    
Maximum Humidity 88    
Minimum Humidity 77    
Precipitation  
Precipitation 0.03 in 0.01 in 0.49 in (1939)
Sea Level Pressure  
Sea Level Pressure 30.07 in    
Wind  
Wind Speed 14 mph (North)    
Max Wind Speed 23 mph    
Max Gust Speed 27 mph    
Visibility 4 miles    
Events Fog , Snow    
T = Trace of Precipitation, MM = Missing Value Source: NWS Daily Summary

Daily Weather History Graph

Daily Weather History Graph

Search for Another Location

Airport or City:

Trip Planner

Search our weather history database for the weather conditions in past years. The results will help you decide how hot, cold, wet, or windy it might be!

Date:

Astronomy

Dec. 26, 2014 Rise Set
Actual Time 7:08 AM MST 4:25 PM MST
Civil Twilight 6:37 AM MST 4:56 PM MST
Nautical Twilight 6:03 AM MST 5:31 PM MST
Astronomical Twilight 5:30 AM MST 6:04 PM MST
Moon 10:20 AM MST (12/26) 10:11 PM MST (12/26)
Length of Visible Light 10h 19m
Length of Day
9h 17m
Waxing Crescent, 28% of the Moon is Illuminated
Dec 26
Waxing Crescent
Dec 28
First Quarter
Jan 4
Full
Jan 13
Last Quarter
Jan 20
New

Hourly Weather History & Observations

Time (MST) Temp. Windchill Dew Point Humidity Pressure Visibility Wind Dir Wind Speed Gust Speed Precip Events Conditions
12:07 AM 25.0 °F 11.7 °F 21.9 °F 88% 29.88 in 10.0 mi North 17.3 mph - N/A   Overcast
12:53 AM 25.0 °F 10.2 °F 19.9 °F 81% 29.95 in 10.0 mi NNE 21.9 mph - N/A   Overcast
1:53 AM 25.0 °F 10.6 °F 21.0 °F 85% 29.98 in 8.0 mi North 20.7 mph - N/A   Overcast
2:53 AM 25.0 °F 14.2 °F 21.0 °F 85% 29.98 in 6.0 mi NNE 11.5 mph - N/A   Overcast
3:04 AM 25.0 °F 14.2 °F 21.0 °F 85% 29.93 in 5.0 mi North 11.5 mph - N/A   Overcast
3:17 AM 25.0 °F 10.9 °F 19.9 °F 81% 29.93 in 7.0 mi NNE 19.6 mph - N/A   Overcast
3:26 AM 24.1 °F 10.6 °F 19.9 °F 84% 29.94 in 10.0 mi North 17.3 mph - N/A   Overcast
3:30 AM 24.1 °F 12.0 °F 19.9 °F 84% 29.95 in 10.0 mi North 13.8 mph - N/A   Overcast
3:37 AM 24.1 °F 10.6 °F 19.0 °F 81% 29.95 in 10.0 mi North 17.3 mph - N/A   Overcast
3:53 AM 24.1 °F 11.0 °F 19.0 °F 81% 30.03 in 10.0 mi North 16.1 mph - N/A   Overcast
4:53 AM 23.0 °F 9.2 °F 19.0 °F 85% 30.04 in 10.0 mi North 17.3 mph - N/A   Overcast
5:28 AM 23.0 °F 10.1 °F 18.0 °F 81% 29.95 in 10.0 mi North 15.0 mph - N/A   Overcast
5:53 AM 23.0 °F 8.3 °F 18.0 °F 81% 30.06 in 10.0 mi NNE 19.6 mph - N/A   Overcast
6:30 AM 23.0 °F 8.7 °F 18.0 °F 81% 29.99 in 10.0 mi North 18.4 mph - N/A   Overcast
6:53 AM 23.0 °F 8.7 °F 18.0 °F 81% 30.09 in 10.0 mi NNE 18.4 mph - N/A   Overcast
7:53 AM 23.0 °F 9.6 °F 18.0 °F 81% 30.12 in 2.5 mi NNE 16.1 mph - 0.00 in Snow Light Snow
8:02 AM 21.9 °F 9.2 °F 18.0 °F 85% 30.01 in 1.5 mi NNE 13.8 mph - 0.00 in Snow Light Snow
8:18 AM 21.9 °F 8.2 °F 18.0 °F 85% 30.02 in 1.0 mi NNE 16.1 mph - 0.00 in Snow Light Snow
8:26 AM 21.9 °F 8.7 °F 18.0 °F 85% 30.01 in 0.5 mi NNE 15.0 mph - 0.00 in Fog , Snow Light Snow
8:53 AM 21.9 °F 7.8 °F 18.0 °F 85% 30.11 in 0.5 mi North 17.3 mph - 0.00 in Fog , Snow Light Snow
9:08 AM 21.9 °F 7.8 °F 18.0 °F 85% 30.00 in 0.8 mi NNE 17.3 mph - 0.00 in Snow Light Snow
9:25 AM 21.9 °F 8.7 °F 18.0 °F 85% 30.03 in 0.8 mi NNE 15.0 mph - 0.00 in Snow Light Snow
9:53 AM 21.9 °F 7.3 °F 18.0 °F 85% 30.14 in 0.5 mi NNE 18.4 mph - 0.00 in Fog , Snow Light Snow
10:06 AM 21.9 °F 7.3 °F 18.0 °F 85% 30.03 in 0.5 mi NNE 18.4 mph - 0.01 in Fog , Snow Light Snow
10:17 AM 21.9 °F 9.2 °F 18.0 °F 85% 30.03 in 0.2 mi North 13.8 mph - 0.01 in Fog , Snow Light Snow
10:30 AM 21.9 °F 7.8 °F 18.0 °F 85% 30.02 in 0.2 mi North 17.3 mph - 0.01 in Fog , Snow Light Snow
10:48 AM 21.2 °F 7.8 °F 17.6 °F 86% 30.02 in 0.5 mi North 15.0 mph - 0.01 in Fog , Snow Light Snow
10:53 AM 21.9 °F 8.7 °F 18.0 °F 85% 30.13 in 0.5 mi NNE 15.0 mph - 0.01 in Fog , Snow Light Snow
11:08 AM 21.9 °F 9.8 °F 18.0 °F 85% 30.02 in 0.8 mi NNE 12.7 mph - 0.01 in Snow Light Snow
11:23 AM 21.9 °F 8.2 °F 18.0 °F 85% 30.01 in 1.0 mi North 16.1 mph - 0.01 in Snow Light Snow
11:49 AM 23.0 °F 9.6 °F 17.6 °F 80% 30.01 in 1.0 mi NNE 16.1 mph - 0.01 in Snow Light Snow
11:53 AM 21.9 °F 8.2 °F 18.0 °F 85% 30.12 in 1.0 mi NNE 16.1 mph - 0.01 in Snow Light Snow
12:31 PM 21.9 °F 9.2 °F 18.0 °F 85% 29.99 in 0.8 mi NNE 13.8 mph - 0.00 in Snow Light Snow
12:53 PM 21.9 °F 8.7 °F 18.0 °F 85% 30.10 in 0.5 mi North 15.0 mph - 0.00 in Fog , Snow Snow
1:19 PM 21.9 °F 8.2 °F 18.0 °F 85% 29.98 in 1.0 mi North 16.1 mph - 0.00 in Snow Light Snow
1:41 PM 21.9 °F 6.9 °F 18.0 °F 85% 29.99 in 0.8 mi North 19.6 mph - 0.00 in Snow Light Snow
1:53 PM 21.9 °F 8.7 °F 18.0 °F 85% 30.10 in 0.5 mi NNE 15.0 mph - 0.00 in Fog , Snow Light Snow
2:05 PM 21.9 °F 7.8 °F 16.0 °F 78% 29.99 in 1.0 mi North 17.3 mph - 0.00 in Snow Light Snow
2:53 PM 21.0 °F 7.6 °F 16.0 °F 81% 30.13 in 2.5 mi NNE 15.0 mph - 0.00 in Snow Light Snow
3:20 PM 21.0 °F 8.1 °F 17.1 °F 85% 30.02 in 1.2 mi North 13.8 mph - 0.00 in Snow Light Snow
3:53 PM 21.0 °F 7.1 °F 16.0 °F 81% 30.14 in 1.2 mi North 16.1 mph - 0.00 in Snow Light Snow
4:24 PM 19.9 °F 7.3 °F 16.0 °F 85% 30.02 in 2.0 mi North 12.7 mph - 0.00 in Snow Light Snow
4:53 PM 19.9 °F 6.2 °F 16.0 °F 85% 30.15 in 2.0 mi North 15.0 mph - 0.00 in Snow Light Snow
5:27 PM 19.9 °F 7.3 °F 16.0 °F 85% 30.05 in 3.0 mi North 12.7 mph - 0.00 in Snow Light Snow
5:30 PM 19.9 °F 6.2 °F 16.0 °F 85% 30.05 in 2.5 mi North 15.0 mph - 0.00 in Snow Light Snow
5:41 PM 19.9 °F 7.3 °F 16.0 °F 85% 30.06 in 1.0 mi North 12.7 mph - 0.00 in Snow Light Snow
5:53 PM 19.9 °F 6.7 °F 16.0 °F 85% 30.19 in 1.2 mi North 13.8 mph - 0.00 in Snow Light Snow
6:08 PM 19.9 °F 6.2 °F 15.1 °F 81% 30.07 in 2.0 mi North 15.0 mph - 0.00 in Snow Light Snow
6:36 PM 19.9 °F 6.7 °F 16.0 °F 85% 30.08 in 1.5 mi North 13.8 mph - 0.00 in Snow Light Snow
6:53 PM 19.9 °F 7.3 °F 15.1 °F 81% 30.21 in 1.5 mi North 12.7 mph - 0.00 in Snow Light Snow
7:07 PM 19.0 °F 7.5 °F 15.1 °F 85% 30.09 in 2.5 mi North 10.4 mph - 0.00 in Snow Light Snow
7:14 PM 19.0 °F 8.2 °F 15.1 °F 85% 30.10 in 3.0 mi North 9.2 mph - 0.00 in Snow Light Snow
7:53 PM 19.0 °F 9.0 °F 15.1 °F 85% 30.24 in 4.0 mi North 8.1 mph - 0.00 in Snow Light Snow
8:53 PM 18.0 °F 9.8 °F 14.0 °F 84% 30.27 in 3.0 mi NW 5.8 mph - 0.00 in Snow Light Snow
9:14 PM 18.0 °F 11.1 °F 14.0 °F 84% 30.14 in 2.5 mi NW 4.6 mph - 0.00 in Snow Light Snow
9:27 PM 18.0 °F 11.1 °F 14.0 °F 84% 30.15 in 1.8 mi WNW 4.6 mph - 0.01 in Snow Light Snow
9:43 PM 18.0 °F 9.8 °F 14.0 °F 84% 30.15 in 2.0 mi NW 5.8 mph - 0.01 in Snow Light Snow
9:53 PM 18.0 °F 9.8 °F 14.0 °F 84% 30.28 in 2.5 mi NW 5.8 mph - 0.01 in Snow Light Snow
10:09 PM 15.1 °F 7.7 °F 12.0 °F 88% 30.15 in 4.0 mi WNW 4.6 mph - 0.00 in Snow Light Snow
10:53 PM 14.0 °F 3.9 °F 10.0 °F 84% 30.30 in 10.0 mi WNW 6.9 mph - 0.00 in   Overcast
11:00 PM 12.9 °F 1.6 °F 10.0 °F 88% 30.16 in 10.0 mi WNW 8.1 mph - N/A   Overcast
11:53 PM 14.0 °F 3.9 °F 10.0 °F 84% 30.30 in 7.0 mi WNW 6.9 mph - N/A   Overcast